[[{"header":{"parameterUnit":"m.s-1","parameterCategory":1,"la1":30.2991,"la2":30.254,"lo1":-89.0895,"lo2":-89.0444,"dy":0.0017,"dx":0.0017,"nx":28,"ny":28,"refTime":"2024-02-17T03:00:00:Z","depth":0,"parameterNumber":2,"parameterNumberName":"U-component_of_WINDS"},"data":[0,0,0,0,0,0,0,0,0,0,0,0,0,0,0,0,0,0,0,0,0,0,0,0,0,0,0,0,0,0,0,0,0,0,0,0,0,0,0,0,0,0,0,0,0,0,0,0,0,0,0,0,0,0,0,0,0,0,0.4011,0.401,0,0.3979,0.3978,0.3978,0.3963,0.3963,0.3963,0.3963,0.393,0.3929,0.3929,0,0,0,0,0,0,0,0,0,0,0,0,0,0.406,0.4059,0.4011,0.401,0.401,0.3979,0.3978,0.3978,0.3963,0.3963,0.3963,0.3963,0.3931,0.393,0.3928,0,0,0,0,0,0,0,0,0,0,0,0,0,0.4034,0.4059,0.4011,0.3999,0.3997,0.3979,0.3978,0.3978,0.3963,0.3963,0.3963,0.3963,0.3931,0.393,0.3928,0.3919,0,0,0.3924,0.3924,0,0,0,0,0,0,0,0,0.4036,0.4033,0.4001,0.4,0.3998,0.3975,0.3984,0.3958,0.3963,0.3976,0.3963,0.3963,0.3945,0.3943,0.3936,0.3918,0.3916,0.3924,0.3923,0.3923,0.3922,0,0,0,0,0,0,0,0.4038,0.4034,0.3998,0.4001,0.3999,0.3995,0.3992,0.3979,0.3961,0.3975,0.3974,0.397,0.3944,0.3938,0.3936,0.3916,0.3924,0.3923,0.3922,0.3922,0.3888,0.3888,0,0,0,0,0,0,0.4041,0.4035,0.3999,0.3997,0.4017,0.3994,0.399,0.3982,0.3961,0.3958,0.397,0.397,0.394,0.3937,0.3934,0.3922,0.3923,0.3921,0.3921,0.3888,0.3888,0.3888,0,0,0,0,0,0,0.4042,0.4038,0.4,0.4016,0.4011,0.3993,0.3985,0.3982,0.3975,0.3957,0.3954,0.3967,0.394,0.3936,0.3923,0.3921,0.3921,0.392,0.3888,0.3888,0.3888,0.3898,0,0,0,0,0,0,0.4044,0.4039,0.4035,0.4016,0.401,0.3989,0.3984,0.3981,0.3973,0.3972,0.3953,0.395,0.394,0.3925,0.3922,0.3919,0.3919,0.3888,0.3888,0.3888,0.3898,0.3898,0.3899,0,0,0,0,0,0.4046,0.4039,0.4035,0.403,0.4005,0.3989,0.3986,0.3974,0.3973,0.3969,0.3957,0.3951,0.3922,0.3924,0.392,0.3917,0.3888,0.3888,0.3888,0.3898,0.3898,0.3899,0,0,0,0,0,0,0.4057,0.4036,0.4031,0.4018,0.4006,0.3987,0.3981,0.3975,0.3963,0.3962,0.3948,0.3944,0.3932,0.3923,0.3926,0.3907,0.3905,0.3904,0.3913,0.3914,0.3914,0.3916,0.3917,0,0,0,0,0,0.4059,0.4048,0.403,0.402,0.4014,0.3999,0.3991,0.3984,0.397,0.3965,0.3953,0.394,0.3928,0.392,0.3908,0.3897,0.3893,0.3893,0.3893,0.3894,0.3893,0.3886,0.3886,0.3887,0.3887,0.3887,0,0,0.4061,0.4048,0.4041,0.4022,0.4011,0.4,0.3994,0.3983,0.3975,0.3963,0.395,0.3941,0.3926,0.3913,0.3907,0.3905,0.3892,0.3893,0.3894,0.3893,0.3886,0.3886,0.3886,0.3887,0.3887,0.3887,0,0,0.4059,0.4048,0.4038,0.4028,0.4012,0.4003,0.4001,0.3983,0.3976,0.3963,0.3954,0.3944,0.3924,0.3914,0.3906,0.3902,0.3895,0.3898,0.39,0.3894,0.3894,0.3894,0.3892,0.3892,0.3898,0.3898,0.3898,0,0.4063,0.4046,0.4034,0.4024,0.4015,0.4005,0.3995,0.3986,0.3967,0.3962,0.396,0.3935,0.3924,0.3909,0.3908,0.3902,0.39,0.39,0.3895,0.3895,0.3894,0.3893,0.3892,0.3898,0.3898,0.3898,0.3898,0,0.4053,0.4041,0.4036,0.4018,0.4009,0.3999,0.3986,0.3979,0.3972,0.3962,0.3949,0.3936,0.3921,0.3917,0.3911,0.3902,0.3901,0.3898,0.3895,0.3895,0.3893,0.3892,0.3899,0.3899,0.3898,0.3898,0,0,0.4056,0.4033,0.4031,0.4023,0.4005,0.3996,0.3986,0.3972,0.3966,0.3954,0.3945,0.3929,0.3926,0.3917,0.3909,0.3903,0.3901,0.39,0.39,0.3901,0.3891,0.3893,0.3893,0.3897,0.3897,0.3896,0.3892,0,0.4052,0.4033,0.4022,0.4008,0.3997,0.3987,0.3979,0.3967,0.3958,0.3949,0.3939,0.3927,0.3924,0.3919,0.3913,0.3902,0.3899,0.3903,0.3888,0.3888,0.3892,0.3892,0.3894,0.3891,0.3891,0.3891,0.3891,0,0.4043,0.4032,0.4016,0.4,0.3996,0.3988,0.3974,0.3965,0.3952,0.3946,0.3937,0.3929,0.3919,0.3917,0.3902,0.3905,0.3899,0.3893,0.3893,0.3891,0.3889,0.3889,0.3889,0.3889,0.389,0.389,0.389,0,0.4047,0.4028,0.4016,0.401,0.3991,0.3986,0.3978,0.3965,0.3957,0.3946,0.3941,0.3928,0.3921,0.3912,0.3901,0.3901,0.3888,0.3885,0.3882,0.3883,0.3879,0.3879,0.3878,0.3876,0.3876,0.3876,0.3876,0,0.4043,0.4034,0.4018,0.401,0.4,0.3989,0.3979,0.397,0.3959,0.395,0.3941,0.3933,0.392,0.391,0.3902,0.3891,0.3888,0.3883,0.388,0.3883,0.3884,0.3878,0.3878,0.3876,0.3876,0.3876,0.3876,0,0.4045,0.4034,0.4021,0.4004,0.4,0.3993,0.3979,0.3972,0.3964,0.3953,0.3949,0.3936,0.3924,0.3912,0.3897,0.3891,0.388,0.3878,0.3885,0.3883,0.3881,0.3881,0.3875,0.3874,0.3874,0.3874,0.3874,0,0.4043,0.4036,0.4019,0.4012,0.4005,0.3994,0.3987,0.3975,0.3968,0.3953,0.3948,0.3936,0.3925,0.3907,0.3896,0.3884,0.388,0.3879,0.3878,0.3882,0.388,0.3881,0.388,0.3879,0.3879,0.3879,0.388,0,0.404,0.4035,0.4024,0.4012,0.4003,0.3993,0.3982,0.3978,0.3964,0.3956,0.3944,0.3936,0.3921,0.3909,0.3896,0.3888,0.3881,0.388,0.3879,0.3881,0.3885,0.3883,0.3885,0.388,0.388,0.388,0.388,0.388,0.404,0.4033,0.402,0.4009,0.4,0.399,0.3983,0.3974,0.3964,0.395,0.3944,0.3932,0.392,0.3902,0.3894,0.3885,0.3883,0.3881,0.3881,0.388,0.3881,0.3888,0.3882,0.3882,0.3882,0.3882,0.3882,0,0.4036,0.4028,0.4017,0.4003,0.3994,0.399,0.3978,0.3971,0.3961,0.395,0.394,0.3927,0.3915,0.3903,0.3891,0.3886,0.3883,0.3883,0.3883,0.3882,0.3883,0.3885,0.3886,0.3886,0.3886,0.3886,0.3886,0.3886,0.4033,0.4022,0.4015,0.4,0.3991,0.398,0.3973,0.3965,0.3956,0.3942,0.3932,0.3925,0.3914,0.3901,0.3891,0.3888,0.3884,0.3885,0.3881,0.3882,0.3882,0.3881,0.3883,0.3884,0.3884,0.388,0.388,0.388]},{"header":{"parameterUnit":"m.s-1","parameterCategory":1,"la1":30.2991,"la2":30.254,"lo1":-89.0895,"lo2":-89.0444,"dy":0.0017,"dx":0.0017,"nx":28,"ny":28,"refTime":"2024-02-17T03:00:00:Z","depth":0,"parameterNumber":3,"parameterNumberName":"V-component_of_WINDS"},"data":[0,0,0,0,0,0,0,0,0,0,0,0,0,0,0,0,0,0,0,0,0,0,0,0,0,0,0,0,0,0,0,0,0,0,0,0,0,0,0,0,0,0,0,0,0,0,0,0,0,0,0,0,0,0,0,0,0,0,-4.237,-4.2371,0,-4.2435,-4.2436,-4.2436,-4.242,-4.2419,-4.2418,-4.2416,-4.2478,-4.248,-4.2483,0,0,0,0,0,0,0,0,0,0,0,0,0,-4.223,-4.2232,-4.237,-4.2371,-4.2372,-4.2435,-4.2436,-4.2436,-4.242,-4.2419,-4.2417,-4.2416,-4.2477,-4.248,-4.2483,0,0,0,0,0,0,0,0,0,0,0,0,0,-4.2292,-4.2233,-4.237,-4.2372,-4.2372,-4.2435,-4.2436,-4.2437,-4.2421,-4.2419,-4.2417,-4.2415,-4.2476,-4.248,-4.2484,-4.2547,0,0,-4.2496,-4.2498,0,0,0,0,0,0,0,0,-4.2288,-4.2297,-4.2371,-4.2372,-4.2373,-4.2418,-4.2408,-4.2473,-4.2421,-4.2402,-4.2416,-4.2414,-4.2459,-4.2464,-4.248,-4.255,-4.2552,-4.2497,-4.2499,-4.2501,-4.2502,0,0,0,0,0,0,0,-4.2284,-4.2294,-4.2396,-4.2372,-4.2373,-4.2368,-4.2375,-4.2421,-4.244,-4.2404,-4.2403,-4.2411,-4.2459,-4.2476,-4.2482,-4.2553,-4.2497,-4.25,-4.2503,-4.2505,-4.268,-4.2682,0,0,0,0,0,0,-4.228,-4.2291,-4.2394,-4.2398,-4.2325,-4.2372,-4.2379,-4.2405,-4.2439,-4.2443,-4.2412,-4.241,-4.247,-4.2477,-4.2484,-4.2562,-4.2501,-4.2505,-4.2507,-4.2678,-4.2681,-4.2683,0,0,0,0,0,0,-4.2277,-4.2289,-4.2391,-4.2344,-4.2357,-4.2376,-4.2405,-4.2407,-4.2425,-4.2446,-4.2449,-4.2427,-4.2469,-4.2478,-4.2532,-4.2564,-4.2507,-4.2511,-4.2675,-4.2679,-4.2682,-4.2718,0,0,0,0,0,0,-4.2273,-4.2288,-4.2313,-4.2345,-4.2359,-4.244,-4.2407,-4.241,-4.2432,-4.243,-4.246,-4.2464,-4.2468,-4.2526,-4.2536,-4.2568,-4.2514,-4.2673,-4.2677,-4.2681,-4.2714,-4.2722,-4.2729,0,0,0,0,0,-4.2268,-4.2319,-4.2314,-4.2327,-4.2391,-4.2441,-4.245,-4.2455,-4.2435,-4.246,-4.2474,-4.2463,-4.2558,-4.2532,-4.2543,-4.2577,-4.2671,-4.2676,-4.268,-4.2711,-4.272,-4.2729,0,0,0,0,0,0,-4.2288,-4.2323,-4.2318,-4.2381,-4.2409,-4.2439,-4.247,-4.2465,-4.2497,-4.2493,-4.2497,-4.2504,-4.256,-4.2573,-4.2543,-4.2641,-4.2612,-4.2619,-4.2631,-4.264,-4.2647,-4.2643,-4.2517,0,0,0,0,0,-4.23,-4.2339,-4.2367,-4.242,-4.2434,-4.245,-4.2472,-4.2474,-4.2502,-4.2513,-4.2531,-4.2557,-4.2594,-4.2617,-4.2651,-4.2715,-4.2723,-4.2744,-4.2752,-4.2758,-4.2764,-4.2801,-4.2812,-4.2699,-4.2699,-4.2699,0,0,-4.2324,-4.2349,-4.2373,-4.2425,-4.2446,-4.2487,-4.246,-4.2503,-4.2533,-4.2519,-4.2573,-4.2587,-4.2616,-4.2677,-4.2704,-4.269,-4.2797,-4.2764,-4.2769,-4.2772,-4.2807,-4.2818,-4.2828,-4.2702,-4.2702,-4.2701,0,0,-4.2391,-4.2412,-4.246,-4.2483,-4.2517,-4.2528,-4.2539,-4.2571,-4.258,-4.2635,-4.2626,-4.2661,-4.2722,-4.2745,-4.2764,-4.2841,-4.2832,-4.2852,-4.2891,-4.2927,-4.2936,-4.2944,-4.2973,-4.2983,-4.2858,-4.2858,-4.2858,0,-4.2417,-4.2478,-4.2485,-4.253,-4.2554,-4.2546,-4.2594,-4.2615,-4.2658,-4.2674,-4.2658,-4.2737,-4.2756,-4.2823,-4.2842,-4.2857,-4.2871,-4.2849,-4.2934,-4.2942,-4.295,-4.2977,-4.2988,-4.286,-4.286,-4.286,-4.286,0,-4.251,-4.2553,-4.2587,-4.2632,-4.2659,-4.2705,-4.2718,-4.2745,-4.2745,-4.2757,-4.2813,-4.2836,-4.2876,-4.2891,-4.289,-4.2958,-4.2949,-4.2933,-4.2904,-4.2963,-4.2989,-4.3,-4.2864,-4.2863,-4.2862,-4.2862,0,0,-4.2589,-4.2639,-4.2652,-4.2673,-4.2711,-4.2744,-4.279,-4.2831,-4.2855,-4.2884,-4.2923,-4.2977,-4.2964,-4.2986,-4.2987,-4.3019,-4.3081,-4.3,-4.3,-4.3016,-4.3159,-4.3172,-4.3184,-4.3075,-4.3077,-4.3079,-4.3157,0,-4.2661,-4.2745,-4.2753,-4.2827,-4.2868,-4.2862,-4.2902,-4.2929,-4.2942,-4.2977,-4.299,-4.3029,-4.3008,-4.3022,-4.3052,-4.3067,-4.311,-4.3061,-4.3112,-4.3113,-4.3106,-4.3198,-4.3211,-4.3284,-4.3167,-4.3169,-4.317,0,-4.2755,-4.2791,-4.287,-4.2905,-4.2922,-4.2959,-4.2999,-4.3032,-4.3063,-4.307,-4.3096,-4.3094,-4.3141,-4.311,-4.3175,-4.3142,-4.3162,-4.3173,-4.3176,-4.3182,-4.3146,-4.3208,-4.3307,-4.3319,-4.3186,-4.3185,-4.3184,0,-4.2808,-4.2875,-4.2933,-4.2951,-4.2992,-4.3018,-4.3036,-4.3065,-4.309,-4.3124,-4.3141,-4.3178,-4.32,-4.3229,-4.3237,-4.3213,-4.3303,-4.3271,-4.331,-4.331,-4.333,-4.3329,-4.3436,-4.3341,-4.3341,-4.3341,-4.3341,0,-4.2887,-4.2936,-4.2958,-4.2993,-4.3048,-4.3057,-4.3111,-4.3127,-4.3154,-4.3191,-4.3187,-4.3222,-4.323,-4.3267,-4.3273,-4.3328,-4.3336,-4.3343,-4.3345,-4.3345,-4.3345,-4.336,-4.3355,-4.3344,-4.3343,-4.3343,-4.3342,0,-4.2956,-4.2972,-4.3034,-4.307,-4.3079,-4.3119,-4.3148,-4.3182,-4.3195,-4.3243,-4.3254,-4.3274,-4.3317,-4.3328,-4.3378,-4.3383,-4.3448,-4.3443,-4.3438,-4.3439,-4.3478,-4.3475,-4.36,-4.3617,-4.3509,-4.351,-4.3511,0,-4.3006,-4.3045,-4.3085,-4.3112,-4.3132,-4.3173,-4.32,-4.321,-4.3237,-4.3277,-4.3306,-4.3349,-4.3384,-4.3454,-4.3471,-4.3511,-4.3508,-4.3549,-4.3514,-4.3514,-4.3511,-4.351,-4.3514,-4.3556,-4.3557,-4.3558,-4.3559,0,-4.3095,-4.3102,-4.3142,-4.3185,-4.3217,-4.3251,-4.3283,-4.3304,-4.3319,-4.335,-4.3396,-4.3423,-4.3477,-4.352,-4.356,-4.3577,-4.3571,-4.357,-4.3582,-4.3583,-4.3579,-4.3584,-4.3459,-4.3567,-4.3567,-4.3566,-4.3565,-4.3565,-4.3158,-4.3193,-4.3228,-4.3272,-4.3298,-4.3329,-4.3364,-4.3382,-4.3421,-4.3467,-4.347,-4.352,-4.355,-4.3604,-4.3624,-4.3662,-4.365,-4.3665,-4.367,-4.3674,-4.3679,-4.3572,-4.3669,-4.3669,-4.3668,-4.3668,-4.3668,0,-4.3248,-4.3271,-4.3312,-4.3359,-4.3395,-4.3388,-4.3423,-4.3453,-4.3498,-4.3528,-4.3564,-4.3617,-4.3659,-4.3681,-4.3723,-4.375,-4.3749,-4.3761,-4.376,-4.3764,-4.3686,-4.3674,-4.3762,-4.3762,-4.3762,-4.3762,-4.3762,-4.3762,-4.3299,-4.3359,-4.337,-4.3443,-4.3464,-4.3516,-4.3537,-4.3565,-4.359,-4.3651,-4.3687,-4.3702,-4.3729,-4.3773,-4.3812,-4.3817,-4.3833,-4.3848,-4.3852,-4.3779,-4.3769,-4.376,-4.3748,-4.3851,-4.3851,-4.3926,-4.3927,-4.3928]}]]